Starlink 32911

operational
NORAD ID: 63096 Int'l Des: 2025-037 Owner: SPXS Country: US Constellation: starlink
LEOCIRCULAR

About Starlink 32911

Description loading...

Live Position

Loading 3D Globe...

Upcoming Passes

Altitude History

Altitude vs Time

uPlot chart will show altitude changes over time

Two-Line Element Set

1 63096U 25037V 25351.88363394 .00002320 00000-0 20209-3 0 9994
2 63096 69.9998 200.8981 0002638 269.9694 90.1163 14.98337227 46341
Epoch: Dec 17, 2025 • Age: 15 hours

Current Status

Altitude 583.9 km
Velocity 7.57 km/s
Sub-Earth Point 62.59°N, 66.01°E
Launch Date Feb 23, 2025
Age 0.8 years
Type internet

Technical Details

Classification Payload
Mass 730.00 kg
Dry Mass 700.00 kg
Total Mass 730.00 kg
Length 0.30 m
Diameter 4.10 m
Span 29.00 m
Shape Box + pan
Manufacturer SPXS
Bus Type Starlink V2M
Phase Status In Orbit
Owner/State SPXS/US

Large Constellations

Loading constellations...